sat.trackr.live / text

‹ back to catalog

STARLINK-32106

NORAD 59690 · 2024-086J

PAYLOAD ACTIVE UNKNOWN

§ Identity

Operator
Country
US
Launch date
2024-05-08
Launch site
AFETR
Launch vehicle
Mass (kg)
RCS (m²)

Purposes: comms

External: N2YO · Heavens-Above · Gunter

§ Orbital elements

Epoch: 2026-09-21T16:08:29.937408Z

Period
94.27 min
Inclination
43.0044°
Eccentricity
0.0001552
Mean motion
15.27578945 rev/d
Perigee alt
482.0 km
Apogee alt
484.1 km
Semi-major
6,861.2 km
B*
2.3040e-5
RAAN
25.4367°
Arg perigee
272.1168°
Mean anomaly
87.9506°
Rev number
13,417

§ Raw data

STARLINK-321061 59690U 24086J   26264.67256872  .00000372  00000+0  23040-4 0  99962 59690  43.0044  25.4367 0001552 272.1168  87.9506 15.27578945134177

JSON: /api/v1/satellites/59690 · /tle

For live sub-satellite position, see the globe view (requires WebGL).

§ Visibility from observer

Set your observer location to see the next 7 days of passes ≥ 10°. The values pass through the URL so the page stays shareable.

No JS? Fill the form by hand. The geolocation button needs JavaScript.